Satellite-Ground Cal/Val Region Overpasses Predictions

Prediction of Satellite NPP Overpassing Cal/Val Region: PacNW

Region Location: (Latitude: 10.00, Longitude: 139.50) to (Latitude: 22.70, Longitude: 165.60).

Table of predicted overpasses for the next 14.0 days since TLE Epoch: 4/29/2023
Interval Starting Time Starting Location Ending Time Ending Location
1 04/29/2023 15:00:40 ( 22.65, 160.33) 04/29/2023 15:04:15 ( 10.02, 157.34)
2 04/30/2023 02:12:30 ( 19.75, 165.60) 04/30/2023 02:13:20 ( 22.69, 164.88)
3 04/30/2023 03:51:14 ( 10.02, 142.51) 04/30/2023 03:54:49 ( 22.64, 139.51)
4 04/30/2023 14:41:37 ( 22.67, 165.10) 04/30/2023 14:45:12 ( 10.04, 162.10)
5 04/30/2023 16:23:07 ( 22.65, 139.72) 04/30/2023 16:23:22 ( 21.78, 139.50)
6 05/01/2023 03:32:12 ( 10.06, 147.26) 05/01/2023 03:35:47 ( 22.68, 144.26)
7 05/01/2023 16:04:03 ( 22.67, 144.49) 05/01/2023 16:07:38 ( 10.05, 141.49)
8 05/02/2023 03:13:08 ( 10.04, 152.02) 05/02/2023 03:16:43 ( 22.66, 149.03)
9 05/02/2023 15:45:00 ( 22.69, 149.25) 05/02/2023 15:48:36 ( 10.01, 146.24)
10 05/03/2023 02:54:05 ( 10.02, 156.79) 05/03/2023 02:57:40 ( 22.65, 153.79)
11 05/03/2023 15:25:57 ( 22.65, 154.00) 05/03/2023 15:29:32 ( 10.02, 151.00)
12 05/04/2023 02:35:01 ( 10.01, 161.55) 05/04/2023 02:38:37 ( 22.69, 158.54)
13 05/04/2023 15:06:54 ( 22.66, 158.76) 05/04/2023 15:10:29 ( 10.04, 155.77)
14 05/05/2023 02:16:51 ( 13.11, 165.60) 05/05/2023 02:19:34 ( 22.68, 163.30)
15 05/05/2023 03:57:28 ( 10.01, 140.94) 05/05/2023 03:59:13 ( 16.18, 139.51)
16 05/05/2023 14:47:50 ( 22.67, 163.53) 05/05/2023 14:51:25 ( 10.05, 160.53)
17 05/06/2023 03:38:25 ( 10.05, 145.69) 05/06/2023 03:42:00 ( 22.68, 142.69)
18 05/06/2023 14:32:00 ( 11.36, 165.59) 05/06/2023 14:32:23 ( 10.01, 165.28)
19 05/06/2023 16:10:17 ( 22.68, 142.91) 05/06/2023 16:13:52 ( 10.05, 139.92)
20 05/07/2023 03:19:22 ( 10.04, 150.45) 05/07/2023 03:22:57 ( 22.67, 147.45)
21 05/07/2023 15:51:14 ( 22.69, 147.68) 05/07/2023 15:54:50 ( 10.01, 144.67)
22 05/08/2023 03:00:18 ( 10.03, 155.21) 05/08/2023 03:03:53 ( 22.66, 152.22)
23 05/08/2023 15:32:10 ( 22.70, 152.44) 05/08/2023 15:35:46 ( 10.02, 149.43)
24 05/09/2023 02:41:15 ( 10.02, 159.98) 05/09/2023 02:44:50 ( 22.65, 156.98)
25 05/09/2023 15:13:08 ( 22.65, 157.19) 05/09/2023 15:16:43 ( 10.03, 154.19)
26 05/10/2023 02:22:11 ( 10.01, 164.74) 05/10/2023 02:25:47 ( 22.70, 161.73)
27 05/10/2023 14:54:04 ( 22.66, 161.95) 05/10/2023 14:57:39 ( 10.04, 158.96)
28 05/11/2023 03:44:38 ( 10.02, 144.12) 05/11/2023 03:48:13 ( 22.65, 141.13)
29 05/11/2023 14:36:19 ( 18.09, 165.59) 05/11/2023 14:38:36 ( 10.04, 163.72)
30 05/11/2023 16:16:31 ( 22.65, 141.34) 05/11/2023 16:18:40 ( 15.08, 139.51)
31 05/12/2023 03:25:34 ( 10.01, 148.89) 05/12/2023 03:29:10 ( 22.70, 145.88)
32 05/12/2023 15:57:27 ( 22.66, 146.10) 05/12/2023 16:01:02 ( 10.04, 143.10)
